Location: Warszawa
(52.2500°N, 21.0000°E)
Time: 09:36:50
(UTC+01:00)

Vanguard 2 - Visible Passes

Search period start: 03 March 2024 00:00
Search period end: 13 March 2024 00:00
Orbit: 554 x 2918 km, 32.9° (Epoch: 02 March)

Date Brightness Start Highest point End Pass type
(mag) Time Alt. Az. Time Alt. Az. Time Alt. Az.
03 Mar 10.4 18:18:39 10° SW 18:25:22 25° SSE 18:34:49 10° ESE visible
03 Mar 10.6 20:25:15 10° WSW 20:33:40 27° S 20:36:09 25° S visible
03 Mar 11.2 22:34:43 10° WSW 22:37:20 14° SW 22:37:20 14° SW visible
04 Mar 10.4 18:33:22 10° SW 18:40:06 25° S 18:49:06 11° SE visible
04 Mar 10.7 20:40:26 10° WSW 20:48:28 24° SSW 20:50:17 23° S visible
04 Mar 11.4 22:51:20 10° SW 22:51:27 10° SW 22:51:27 10° SW visible
05 Mar 10.4 18:48:13 10° SW 18:54:52 24° S 19:03:15 12° SE visible
05 Mar 10.8 20:55:50 10° WSW 21:03:16 21° SSW 21:04:26 21° S visible
06 Mar 10.4 19:03:11 10° SW 19:09:39 23° S 19:17:25 12° SE visible
06 Mar 10.9 21:11:32 10° SW 21:18:03 17° SSW 21:18:36 17° SSW visible
07 Mar 10.5 19:18:17 10° SW 19:24:26 21° S 19:31:37 12° SSE visible
07 Mar 11.1 21:27:54 10° SW 21:32:48 14° SSW 21:32:48 14° SSW visible
08 Mar 10.7 19:33:37 10° SW 19:39:15 18° S 19:45:52 11° SSE visible
09 Mar 10.8 19:49:16 10° SW 19:54:04 15° SSW 20:00:00 10° SSE visible
10 Mar 10.4 17:56:47 10° SW 18:01:00 16° S 18:06:24 10° SE visible
10 Mar 11.0 20:05:44 10° SW 20:08:53 12° SSW 20:12:27 10° S visible
11 Mar 10.6 18:12:07 10° SW 18:15:48 14° S 18:20:20 10° SSE visible
12 Mar 10.7 18:27:57 10° SSW 18:30:36 12° S 18:33:39 10° S visible
